Location: Corralito
(10.2667°N, 66.9500°W)
Time: 13:17:26
(UTC+00:00)

FALCON 9 R/B - Pass Details

Date: 13 December 2023
Orbit: 190 x 12910 km, 27.0° (Epoch: 20 February)

Event Time Altitude Azimuth Distance (km) Brightness Sun altitude
Exits shadow 09:57:23 10° 289° (WNW) 16,652 7.8 -9.6°
Reaches altitude 10° 09:58:18 10° 290° (WNW) 16,560 7.8 -9.4°
Maximum altitude 11:06:42 60° 9° (N) 3,419 5.0 6.1°
Drops below altitude 10° 11:16:17 10° 89° (E) 3,452 6.4 8.2°
Sets 11:18:02 0° 94° (E) 3,931 6.8 8.6°
